Starlink 3296

decayed
NORAD ID: 50168 Int'l Des: 2021-125 Owner: SPXS Country: US Constellation: starlink
LEOCIRCULAR
グループ

Starlink 3296について

説明を読み込み中...

高度履歴

Altitude vs Time

uPlot chart will show altitude changes over time

軌道要素

1 50168U 21125N 26010.76774172 .09467555 12550-4 29266-3 0 9997
2 50168 53.2002 124.9456 0005460 320.4328 39.6324 16.44740297228195
Epoch: Jan 10, 2026 • Age: 1271 hours

現在のステータス

Position data unavailable
打ち上げ日 Dec 18, 2021
運用期間 4.2 years
落下予定日 Jan 10, 2026
タイプ internet

技術仕様

分類 Payload
質量 290.00 kg
乾燥質量 270.00 kg
総質量 290.00 kg
長さ 0.20 m
直径 2.80 m
スパン 9.00 m
形状 Box + pan
製造者 SPXS
バスタイプ Starlink
フェーズステータス Reentered
所有者/国 SPXS/US

大規模コンステレーション

Loading constellations...